AFR56T LFPG-KLAS

Flight info

Callsign AFR56T
Flight time N/A
Altitude 34000
Route ATREX DCT VESAN DCT RATUK DCT SOVAT L613 LEHOC DCT INPIP DCT ETILO/M084F340 DCT 5930N02000W 61N030W 62N040W 61N050W DCT PIDSO DCT MIBNO/N0480F340 DCT TUNNI DCT 5830N08000W 5530N09000W DCT SEGAP DCT KU12W DCT KD90U DCT KU78S DCT KU63Q DCT KU48O DCT BCE BLAID2
Aircraft A359/H-SABDE2E3GHIJ1J2J3J4J5M1P2RWXYZ/LB1D1

Departure

Time N/A
Airport Charles de Gaulle International Airport (LFPG)

Arrival

Time 2026-05-01 10:43
Airport Harry Reid International Airport (KLAS)
Time Latitude Longitude Altitude Speed Heading
2026-05-01 09:35 40.48770 -110.00947 40163 ft 482 kts 214°
2026-05-01 09:35 40.43089 -110.05612 40163 ft 481 kts 216°
2026-05-01 09:36 40.37477 -110.10372 40150 ft 480 kts 216°
2026-05-01 09:36 40.31856 -110.15094 40129 ft 479 kts 216°
2026-05-01 09:37 40.26220 -110.19779 40147 ft 480 kts 216°
2026-05-01 09:37 40.17750 -110.26779 40138 ft 480 kts 216°
2026-05-01 09:38 40.09309 -110.33734 40140 ft 480 kts 216°
2026-05-01 09:39 40.00839 -110.40695 40141 ft 480 kts 216°
2026-05-01 09:39 39.95150 -110.45359 40143 ft 480 kts 216°
2026-05-01 09:40 39.86701 -110.52269 40137 ft 480 kts 216°
2026-05-01 09:41 39.81047 -110.56882 40128 ft 480 kts 216°
2026-05-01 09:41 39.72555 -110.63793 40163 ft 480 kts 216°
2026-05-01 09:42 39.66896 -110.68387 40162 ft 480 kts 216°
2026-05-01 09:43 39.55568 -110.77557 40175 ft 479 kts 216°
2026-05-01 09:43 39.49915 -110.82120 40161 ft 480 kts 216°
2026-05-01 09:44 39.41401 -110.88975 40129 ft 480 kts 216°
2026-05-01 09:45 39.35730 -110.93529 40097 ft 479 kts 216°
2026-05-01 09:45 39.27236 -111.00335 40094 ft 479 kts 216°
2026-05-01 09:46 39.21561 -111.04871 40088 ft 479 kts 216°
2026-05-01 09:46 39.15893 -111.09392 40084 ft 479 kts 216°
2026-05-01 09:47 39.10227 -111.13904 40082 ft 478 kts 216°
2026-05-01 09:47 39.04554 -111.18412 40086 ft 479 kts 216°
2026-05-01 09:48 38.98877 -111.22915 40081 ft 480 kts 216°
2026-05-01 09:48 38.93200 -111.27409 40085 ft 480 kts 216°
2026-05-01 09:49 38.87512 -111.31904 40076 ft 479 kts 216°
2026-05-01 09:49 38.81832 -111.36383 40078 ft 479 kts 216°
2026-05-01 09:50 38.76155 -111.40853 40077 ft 479 kts 216°
2026-05-01 09:50 38.70516 -111.45284 40074 ft 479 kts 216°
2026-05-01 09:51 38.64830 -111.49742 40073 ft 479 kts 216°
2026-05-01 09:51 38.59147 -111.54191 40071 ft 479 kts 216°
2026-05-01 09:52 38.53463 -111.58632 40069 ft 479 kts 216°
2026-05-01 09:52 38.47770 -111.63071 40067 ft 479 kts 216°
2026-05-01 09:53 38.42080 -111.67500 40066 ft 479 kts 216°
2026-05-01 09:53 38.36390 -111.71920 40065 ft 478 kts 216°
2026-05-01 09:54 38.30710 -111.76324 40061 ft 478 kts 216°
2026-05-01 09:54 38.25037 -111.80716 40059 ft 478 kts 216°
2026-05-01 09:55 38.19355 -111.85106 40047 ft 479 kts 216°
2026-05-01 09:55 38.13660 -111.89498 40042 ft 478 kts 216°
2026-05-01 09:56 38.07976 -111.93872 40037 ft 477 kts 216°
2026-05-01 09:56 38.02349 -111.98197 40036 ft 476 kts 216°
2026-05-01 09:57 37.96973 -112.03021 40028 ft 472 kts 221°
2026-05-01 09:57 37.91767 -112.08091 40103 ft 472 kts 222°
2026-05-01 09:58 37.86563 -112.13177 40116 ft 471 kts 222°
2026-05-01 09:58 37.81377 -112.18244 40162 ft 471 kts 222°
2026-05-01 09:59 37.76190 -112.23304 40173 ft 471 kts 222°
2026-05-01 09:59 37.71003 -112.28359 40162 ft 471 kts 222°
2026-05-01 10:00 37.66351 -112.34070 40130 ft 464 kts 233°
2026-05-01 10:00 37.62119 -112.40222 40089 ft 464 kts 233°
2026-05-01 10:01 37.57879 -112.46372 40037 ft 464 kts 233°
2026-05-01 10:01 37.53643 -112.52496 39991 ft 464 kts 233°
2026-05-01 10:02 37.49392 -112.58625 39991 ft 464 kts 233°
2026-05-01 10:02 37.45140 -112.64743 39991 ft 464 kts 233°
2026-05-01 10:03 37.40879 -112.70862 39979 ft 464 kts 233°
2026-05-01 10:03 37.36620 -112.76967 39976 ft 464 kts 233°
2026-05-01 10:04 37.32647 -112.82651 39984 ft 465 kts 233°
2026-05-01 10:04 37.28374 -112.88754 39955 ft 465 kts 233°
2026-05-01 10:05 37.24108 -112.94834 39955 ft 461 kts 233°
2026-05-01 10:05 37.22001 -112.97830 39555 ft 456 kts 233°
2026-05-01 10:05 37.19895 -113.00828 38844 ft 460 kts 233°
2026-05-01 10:06 37.17772 -113.03847 38086 ft 461 kts 233°
2026-05-01 10:06 37.15654 -113.06854 37409 ft 460 kts 233°
2026-05-01 10:06 37.13534 -113.09860 36758 ft 459 kts 233°
2026-05-01 10:06 37.11417 -113.12859 36099 ft 459 kts 233°
2026-05-01 10:07 37.09300 -113.15856 35420 ft 459 kts 233°
2026-05-01 10:07 37.07183 -113.18853 34690 ft 461 kts 233°
2026-05-01 10:07 37.05050 -113.21868 33875 ft 464 kts 233°
2026-05-01 10:07 37.02907 -113.24894 32985 ft 466 kts 232°
2026-05-01 10:08 36.98599 -113.30967 31420 ft 465 kts 232°
2026-05-01 10:08 36.96457 -113.33982 30838 ft 461 kts 232°
2026-05-01 10:08 36.94336 -113.36963 30247 ft 457 kts 231°
2026-05-01 10:09 36.92230 -113.39923 29586 ft 454 kts 231°
2026-05-01 10:09 36.90166 -113.42819 28990 ft 450 kts 231°
2026-05-01 10:09 36.88093 -113.45726 28436 ft 445 kts 232°
2026-05-01 10:09 36.86045 -113.48596 27875 ft 441 kts 232°
2026-05-01 10:10 36.84012 -113.51442 27301 ft 437 kts 232°
2026-05-01 10:10 36.81999 -113.54258 26744 ft 433 kts 232°
2026-05-01 10:10 36.78304 -113.60063 25605 ft 423 kts 237°
2026-05-01 10:11 36.76557 -113.62991 25040 ft 420 kts 237°
2026-05-01 10:11 36.74807 -113.65897 24465 ft 418 kts 237°
2026-05-01 10:11 36.73057 -113.68776 23907 ft 415 kts 237°
2026-05-01 10:11 36.71312 -113.71633 23313 ft 414 kts 237°
2026-05-01 10:12 36.69570 -113.74474 22702 ft 410 kts 237°
2026-05-01 10:12 36.68425 -113.76338 22304 ft 408 kts 237°
2026-05-01 10:12 36.64428 -113.82832 20996 ft 401 kts 236°
2026-05-01 10:13 36.62735 -113.85576 20440 ft 398 kts 236°
2026-05-01 10:13 36.61055 -113.88298 19866 ft 397 kts 236°
2026-05-01 10:13 36.59370 -113.91023 19295 ft 396 kts 236°
2026-05-01 10:14 36.56022 -113.96445 18129 ft 395 kts 235°
2026-05-01 10:14 36.54348 -113.99142 17487 ft 393 kts 235°
2026-05-01 10:14 36.52681 -114.01825 16902 ft 391 kts 235°
2026-05-01 10:14 36.51031 -114.04481 16557 ft 381 kts 234°
2026-05-01 10:15 36.49463 -114.07000 16432 ft 366 kts 235°
2026-05-01 10:15 36.47941 -114.09444 16321 ft 351 kts 235°
2026-05-01 10:15 36.46475 -114.11797 16201 ft 337 kts 235°
2026-05-01 10:15 36.45068 -114.14057 16071 ft 324 kts 235°
2026-05-01 10:16 36.43712 -114.16236 15930 ft 314 kts 235°
2026-05-01 10:16 36.42393 -114.18354 15660 ft 309 kts 235°
2026-05-01 10:16 36.39758 -114.22589 14922 ft 310 kts 235°
2026-05-01 10:17 36.38444 -114.24704 14638 ft 312 kts 234°
2026-05-01 10:17 36.35750 -114.29014 14111 ft 317 kts 234°
2026-05-01 10:17 36.34397 -114.31172 13851 ft 316 kts 234°
2026-05-01 10:18 36.31707 -114.35465 13308 ft 314 kts 234°
2026-05-01 10:18 36.30366 -114.37602 13047 ft 313 kts 234°
2026-05-01 10:18 36.29029 -114.39733 12773 ft 312 kts 234°
2026-05-01 10:19 36.27697 -114.41855 12511 ft 312 kts 234°
2026-05-01 10:19 36.26367 -114.43972 12264 ft 311 kts 234°
2026-05-01 10:19 36.25487 -114.45372 12099 ft 310 kts 234°
2026-05-01 10:20 36.23059 -114.49745 11718 ft 308 kts 242°
2026-05-01 10:20 36.21955 -114.52014 11655 ft 307 kts 242°
2026-05-01 10:20 36.20857 -114.54276 11542 ft 306 kts 242°
2026-05-01 10:20 36.19759 -114.56535 11440 ft 306 kts 241°
2026-05-01 10:21 36.18660 -114.58790 11357 ft 306 kts 241°
2026-05-01 10:21 36.16465 -114.63296 11171 ft 305 kts 242°
2026-05-01 10:21 36.15367 -114.65544 11085 ft 305 kts 242°
2026-05-01 10:22 36.13171 -114.70032 10896 ft 305 kts 241°
2026-05-01 10:22 36.10981 -114.74503 10715 ft 304 kts 242°
2026-05-01 10:23 36.09887 -114.76734 10624 ft 303 kts 241°
2026-05-01 10:23 36.07700 -114.81191 10431 ft 303 kts 241°
2026-05-01 10:23 36.06610 -114.83410 10346 ft 303 kts 241°
2026-05-01 10:24 36.04428 -114.87849 10152 ft 301 kts 241°
2026-05-01 10:24 36.02252 -114.92266 9951 ft 301 kts 241°
2026-05-01 10:25 36.00079 -114.96673 9753 ft 300 kts 241°
2026-05-01 10:25 35.97920 -115.01048 9585 ft 300 kts 241°
2026-05-01 10:26 35.96839 -115.03236 9495 ft 297 kts 240°
2026-05-01 10:26 35.95766 -115.05403 9271 ft 295 kts 241°
2026-05-01 10:26 35.93144 -115.09284 9047 ft 298 kts 223°
2026-05-01 10:27 35.89954 -115.12538 8548 ft 298 kts 220°
2026-05-01 10:27 35.86726 -115.15738 8065 ft 298 kts 220°
2026-05-01 10:28 35.85114 -115.17327 8144 ft 297 kts 220°
2026-05-01 10:28 35.81869 -115.20519 9326 ft 297 kts 220°
2026-05-01 10:28 35.80254 -115.22105 10034 ft 297 kts 220°
2026-05-01 10:29 35.76884 -115.25416 10657 ft 325 kts 220°
2026-05-01 10:29 35.75096 -115.27170 10911 ft 339 kts 220°
2026-05-01 10:30 35.71245 -115.30939 11006 ft 361 kts 220°
2026-05-01 10:30 35.67315 -115.34777 11004 ft 360 kts 220°
2026-05-01 10:31 35.63403 -115.38595 11005 ft 358 kts 220°
2026-05-01 10:31 35.59495 -115.42407 11007 ft 359 kts 220°
2026-05-01 10:32 35.56502 -115.47050 10993 ft 350 kts 256°
2026-05-01 10:32 35.56329 -115.49981 10997 ft 343 kts 281°
2026-05-01 10:32 35.58849 -115.54648 10990 ft 336 kts 330°
2026-05-01 10:33 35.63357 -115.55150 10997 ft 339 kts 19°
2026-05-01 10:33 35.66584 -115.51077 10998 ft 349 kts 69°
2026-05-01 10:34 35.66883 -115.48119 11007 ft 354 kts 92°
2026-05-01 10:34 35.66742 -115.45097 10999 ft 353 kts 82°
2026-05-01 10:34 35.67446 -115.42264 10984 ft 343 kts 58°
2026-05-01 10:35 35.70636 -115.38432 10554 ft 302 kts 31°
2026-05-01 10:35 35.72417 -115.37180 10005 ft 291 kts 26°
2026-05-01 10:35 35.74217 -115.36081 9219 ft 287 kts 24°
2026-05-01 10:35 35.75993 -115.35042 8724 ft 280 kts 24°
2026-05-01 10:36 35.79469 -115.33044 8103 ft 273 kts 24°
2026-05-01 10:36 35.81192 -115.32066 7916 ft 272 kts 24°
2026-05-01 10:36 35.82876 -115.31108 7737 ft 261 kts 24°
2026-05-01 10:37 35.84489 -115.30186 7601 ft 249 kts 24°
2026-05-01 10:37 35.87446 -115.28507 7064 ft 221 kts 24°
2026-05-01 10:37 35.88784 -115.27742 6833 ft 201 kts 24°
2026-05-01 10:38 35.89972 -115.27063 6607 ft 179 kts 24°
2026-05-01 10:38 35.91079 -115.26431 6149 ft 172 kts 24°
2026-05-01 10:38 35.92155 -115.25818 5876 ft 170 kts 24°
2026-05-01 10:38 35.93233 -115.25205 5671 ft 169 kts 25°
2026-05-01 10:39 35.94253 -115.24626 5554 ft 156 kts 24°
2026-05-01 10:39 35.95207 -115.24088 5361 ft 148 kts 24°
2026-05-01 10:39 35.96144 -115.23556 5310 ft 149 kts 25°
2026-05-01 10:39 35.97061 -115.23028 5317 ft 141 kts 25°
2026-05-01 10:40 35.97938 -115.22518 5208 ft 138 kts 26°
2026-05-01 10:40 35.98793 -115.22006 4947 ft 136 kts 24°
2026-05-01 10:40 35.99650 -115.21520 4632 ft 135 kts 23°
2026-05-01 10:40 36.00508 -115.21035 4273 ft 136 kts 24°
2026-05-01 10:41 36.01368 -115.20546 3947 ft 135 kts 24°
2026-05-01 10:41 36.02223 -115.20055 3616 ft 136 kts 24°
2026-05-01 10:41 36.03938 -115.19058 3149 ft 138 kts 23°
2026-05-01 10:42 36.04815 -115.18580 2899 ft 138 kts 23°
2026-05-01 10:42 36.05693 -115.18084 2684 ft 139 kts 24°
2026-05-01 10:42 36.06572 -115.17573 2479 ft 140 kts 24°
2026-05-01 10:42 36.07463 -115.17079 2310 ft 141 kts 25°
2026-05-01 10:43 36.08347 -115.16568 2200 ft 133 kts 24°
2026-05-01 10:43 36.08960 -115.16220 2200 ft 54 kts 25°
2026-05-01 10:43 36.09068 -115.16159 2199 ft 0 kts 25°
2026-05-01 10:43 36.09069 -115.16158 2194 ft 1 kts 25°
2026-05-01 10:44 36.09104 -115.16138 2195 ft 10 kts 25°
2026-05-01 10:44 36.09180 -115.16095 2198 ft 14 kts 25°
2026-05-01 10:44 36.09287 -115.16034 2197 ft 20 kts 24°
2026-05-01 10:44 36.09423 -115.15950 2199 ft 23 kts 36°
2026-05-01 10:45 36.09527 -115.15816 2197 ft 16 kts 60°
2026-05-01 10:45 36.09554 -115.15691 2198 ft 16 kts 94°
2026-05-01 10:45 36.09523 -115.15562 2199 ft 16 kts 114°
2026-05-01 10:45 36.09471 -115.15431 2197 ft 18 kts 126°
2026-05-01 10:46 36.09442 -115.15402 2196 ft 0 kts 154°
2026-05-01 10:49 36.09441 -115.15401 2196 ft 1 kts 158°
2026-05-01 10:49 36.09415 -115.15401 2199 ft 7 kts 183°
2026-05-01 10:50 36.09351 -115.15424 2198 ft 12 kts 201°
2026-05-01 10:50 36.09263 -115.15473 2196 ft 16 kts 205°
2026-05-01 10:50 36.09152 -115.15538 2199 ft 19 kts 202°
2026-05-01 10:50 36.09022 -115.15612 2199 ft 22 kts 206°
2026-05-01 10:51 36.08875 -115.15697 2197 ft 25 kts 205°
2026-05-01 10:51 36.08721 -115.15779 2198 ft 21 kts 195°
2026-05-01 10:51 36.08591 -115.15745 2197 ft 19 kts 156°
2026-05-01 10:51 36.08476 -115.15680 2196 ft 18 kts 155°
2026-05-01 10:52 36.08368 -115.15616 2195 ft 17 kts 154°
2026-05-01 10:52 36.08262 -115.15555 2195 ft 17 kts 155°
2026-05-01 10:52 36.08158 -115.15496 2195 ft 16 kts 155°
2026-05-01 10:52 36.08058 -115.15438 2196 ft 16 kts 155°
2026-05-01 10:53 36.07961 -115.15382 2196 ft 15 kts 155°
2026-05-01 10:53 36.07867 -115.15327 2197 ft 15 kts 153°
2026-05-01 10:53 36.07810 -115.15240 2198 ft 13 kts 101°
2026-05-01 10:53 36.07806 -115.15131 2195 ft 13 kts 91°
2026-05-01 10:54 36.07800 -115.15026 2199 ft 12 kts 94°
2026-05-01 10:54 36.07793 -115.14921 2196 ft 12 kts 95°
2026-05-01 10:54 36.07785 -115.14815 2198 ft 12 kts 95°
2026-05-01 10:54 36.07778 -115.14707 2195 ft 13 kts 94°
2026-05-01 10:55 36.07772 -115.14598 2197 ft 13 kts 94°
2026-05-01 10:55 36.07766 -115.14489 2195 ft 13 kts 94°
2026-05-01 10:55 36.07758 -115.14374 2197 ft 14 kts 95°
2026-05-01 10:55 36.07755 -115.14248 2194 ft 15 kts 91°
2026-05-01 10:56 36.07754 -115.14111 2194 ft 16 kts 90°
2026-05-01 10:56 36.07754 -115.13967 2195 ft 17 kts 89°
2026-05-01 10:56 36.07756 -115.13820 2195 ft 18 kts 88°
2026-05-01 10:56 36.07755 -115.13665 2195 ft 19 kts 91°
2026-05-01 10:57 36.07755 -115.13503 2196 ft 19 kts 90°
2026-05-01 10:57 36.07757 -115.13346 2199 ft 16 kts 79°
2026-05-01 10:57 36.07839 -115.13292 2197 ft 15 kts
2026-05-01 10:57 36.07945 -115.13292 2197 ft 16 kts
2026-05-01 10:58 36.08062 -115.13292 2195 ft 17 kts 359°
2026-05-01 10:58 36.08185 -115.13292 2196 ft 18 kts
2026-05-01 10:58 36.08309 -115.13318 2197 ft 18 kts 324°
2026-05-01 10:58 36.08399 -115.13425 2197 ft 18 kts 315°
2026-05-01 10:59 36.08442 -115.13554 2195 ft 9 kts 272°
2026-05-01 10:59 36.08467 -115.13610 2195 ft 8 kts 335°
2026-05-01 10:59 36.08504 -115.13617 2196 ft 3 kts 355°
2026-05-01 10:59 36.08514 -115.13618 2195 ft 0 kts 356°